VR2R-13 Weather Reports


Display with metric or nautical units.
time (UTC)temp
F
wind
direction
speed
MPH
gust
MPH
rain 1hr
in
rain 24hr
in
rain mn
in
humidity
%
barometer
mb
20260906020517 69 238 0.0 5.0 0.00 0.00 0.00 96 912.3
20260906020116 68 281 0.0 5.0 0.00 0.00 0.00 97 912.3
20260906015917 68 231 1.0 7.0 0.00 0.00 0.00 96 912.3
20260906013616 68 276 1.0 6.0 0.00 0.00 0.00 96 912.4
20260906013517 68 231 1.0 6.0 0.00 0.00 0.00 96 912.4
20260906013115 68 222 1.0 5.0 0.00 0.00 0.00 97 912.4
20260906012917 68 239 3.0 6.0 0.00 0.00 0.00 96 912.4
20260906012616 68 222 5.0 7.0 0.00 0.00 0.00 96 912.4
20260906012317 68 230 3.0 6.0 0.00 0.00 0.00 96 912.4
20260906012115 68 225 2.0 6.0 0.00 0.00 0.00 97 912.4
20260906011717 68 248 2.0 6.0 0.00 0.00 0.00 97 912.5
20260906011117 68 217 0.0 5.0 0.00 0.00 0.00 97 912.5
20260906011115 68 232 0.0 5.0 0.00 0.00 0.00 97 912.5
20260906010615 68 232 3.0 6.0 0.00 0.00 0.00 97 912.4
20260906010517 68 237 0.0 4.0 0.00 0.00 0.00 97 912.4
20260906010116 68 219 1.0 4.0 0.00 0.00 0.00 98 912.4
20260906005917 68 233 1.0 5.0 0.00 0.00 0.00 98 912.4
20260906005615 68 269 0.0 4.0 0.00 0.00 0.00 97 912.4
20260906005316 68 263 3.0 5.0 0.00 0.00 0.00 97 912.4
20260906005115 68 245 3.0 4.0 0.00 0.00 0.00 97 912.4
20260906004716 68 269 3.0 5.0 0.00 0.00 0.00 98 912.3
20260906004615 68 252 3.0 5.0 0.00 0.00 0.00 97 912.3
20260906004117 68 260 0.0 2.0 0.00 0.00 0.00 98 912.3
20260906003615 68 244 3.0 7.0 0.00 0.00 0.00 97 912.2
20260906003517 68 265 4.0 7.0 0.00 0.00 0.00 97 912.2
20260906003115 68 262 5.0 6.0 0.00 0.00 0.00 97 912.0
20260906002916 68 215 4.0 6.0 0.00 0.00 0.00 97 912.1
20260906002615 68 256 4.0 6.0 0.00 0.00 0.00 97 912.1
20260906002316 68 254 4.0 6.0 0.00 0.00 0.00 97 912.0
20260906002115 68 251 4.0 6.0 0.00 0.00 0.00 97 912.0
20260906001716 68 244 3.0 6.0 0.00 0.00 0.00 97 912.0
20260906001615 68 255 4.0 6.0 0.00 0.00 0.00 97 912.0
20260906001117 68 264 4.0 6.0 0.00 0.00 0.00 97 912.0
20260906001115 68 258 4.0 6.0 0.00 0.00 0.00 97 911.9
20260906000615 68 264 4.0 7.0 0.00 0.00 0.00 97 911.9
20260906000516 68 255 4.0 7.0 0.00 0.00 0.00 97 911.9
20260906000115 67 249 4.0 7.0 0.00 0.00 0.00 97 911.8
20260905235916 67 239 5.0 7.0 0.00 0.00 0.00 97 911.7
20260905235615 67 252 2.0 7.0 0.00 0.00 0.00 97 911.7
20260905235316 67 260 5.0 7.0 0.00 0.00 0.00 97 911.6
20260905235115 67 250 5.0 7.0 0.00 0.00 0.00 97 911.6
20260905234716 67 235 5.0 7.0 0.00 0.00 0.00 96 911.7
20260905234615 67 263 5.0 7.0 0.00 0.00 0.00 96 911.7
20260905234116 67 261 5.0 7.0 0.00 0.00 0.00 96 911.6
20260905233615 67 274 5.0 7.0 0.00 0.00 0.00 96 911.5
20260905233516 67 274 5.0 7.0 0.00 0.00 0.00 96 911.5
20260905233114 67 254 5.0 8.0 0.00 0.00 0.00 96 911.5
20260905232916 67 254 5.0 8.0 0.00 0.00 0.00 96 911.4
20260905232615 67 249 5.0 8.0 0.00 0.00 0.00 96 911.4
20260905232316 67 248 5.0 8.0 0.00 0.00 0.00 96 911.3
20260905232114 67 259 4.0 8.0 0.00 0.00 0.00 96 911.3
20260905231716 67 261 6.0 9.0 0.00 0.00 0.00 96 911.3
20260905231614 67 249 6.0 9.0 0.00 0.00 0.00 96 911.2
20260905231116 67 272 6.0 9.0 0.00 0.00 0.00 96 911.2
20260905231114 67 266 6.0 9.0 0.00 0.00 0.00 96 911.3
20260905230614 67 263 6.0 9.0 0.00 0.00 0.00 96 911.2
20260905230516 67 248 7.0 9.0 0.00 0.00 0.00 96 911.2
20260905230114 67 248 6.0 8.0 0.00 0.00 0.00 96 911.2
20260905225916 68 283 5.0 7.0 0.00 0.00 0.00 96 911.2
20260905225614 68 206 5.0 7.0 0.00 0.00 0.00 96 911.2
20260905225316 68 252 4.0 8.0 0.00 0.00 0.00 96 911.1
20260905225114 68 225 4.0 8.0 0.00 0.00 0.00 95 911.1
20260905224716 68 259 5.0 8.0 0.00 0.00 0.00 95 911.1
20260905224614 68 255 5.0 8.0 0.00 0.00 0.00 95 911.1
20260905224116 68 244 5.0 8.0 0.00 0.00 0.00 95 911.0
20260905224114 68 248 5.0 8.0 0.00 0.00 0.00 95 911.1
20260905223614 68 261 6.0 8.0 0.00 0.00 0.00 95 911.0
20260905223516 68 244 6.0 8.0 0.00 0.00 0.00 95 911.0
20260905223114 68 250 5.0 7.0 0.00 0.00 0.00 96 910.9
20260905222915 68 224 6.0 7.0 0.00 0.00 0.00 96 910.9
20260905222614 67 235 6.0 7.0 0.00 0.00 0.00 96 910.8
20260905222315 67 216 6.0 7.0 0.00 0.00 0.00 96 910.9
20260905222114 67 236 5.0 7.0 0.00 0.00 0.00 96 910.9
20260905221716 67 273 5.0 7.0 0.00 0.00 0.00 96 910.8
20260905221614 66 254 6.0 7.0 0.00 0.00 0.00 96 910.9
20260905221116 66 254 5.0 8.0 0.00 0.01 0.00 96 910.8
20260905221114 66 266 5.0 8.0 0.00 0.01 0.00 96 910.8
20260905220614 67 264 5.0 8.0 0.00 0.01 0.00 96 910.8
20260905220515 67 266 5.0 8.0 0.00 0.01 0.00 96 910.8
20260905220114 67 264 6.0 8.0 0.00 0.01 0.00 96 910.7
20260905215915 67 258 5.0 8.0 0.00 0.01 0.00 96 910.7
20260905215614 67 254 5.0 8.0 0.00 0.01 0.00 96 910.7
20260905215114 67 254 6.0 8.0 0.00 0.01 0.00 96 910.8
20260905214715 67 260 6.0 8.0 0.00 0.01 0.00 96 910.7
20260905214614 67 228 6.0 8.0 0.00 0.01 0.00 96 910.7
20260905214115 67 223 6.0 9.0 0.00 0.01 0.00 96 910.7
20260905213615 67 251 6.0 9.0 0.00 0.01 0.00 96 910.7
20260905213515 67 233 6.0 9.0 0.00 0.01 0.00 97 910.7
20260905213114 67 230 6.0 7.0 0.00 0.01 0.00 97 910.6
20260905212915 67 230 6.0 7.0 0.00 0.01 0.00 97 910.6
20260905212614 67 245 6.0 7.0 0.00 0.01 0.00 97 910.6
20260905212315 67 240 6.0 8.0 0.00 0.01 0.00 97 910.6
20260905212113 67 221 6.0 8.0 0.00 0.01 0.00 97 910.6
20260905211715 67 236 6.0 8.0 0.00 0.01 0.00 97 910.6
20260905211613 67 241 6.0 8.0 0.00 0.01 0.00 97 910.6
20260905211115 66 273 6.0 8.0 0.00 0.01 0.00 97 910.5
20260905210613 66 260 7.0 8.0 0.00 0.01 0.00 97 910.5
20260905210515 66 255 7.0 8.0 0.00 0.01 0.00 97 910.5
20260905210113 66 248 6.0 7.0 0.00 0.01 0.00 97 910.5
20260905205915 66 243 5.0 7.0 0.01 0.01 0.00 97 910.5
20260905205613 66 249 5.0 7.0 0.01 0.01 0.00 97 910.5
20260905205315 66 256 5.0 8.0 0.01 0.01 0.00 97 910.5
20260905205113 66 256 5.0 8.0 0.01 0.01 0.00 97 910.4
20260905204714 66 269 6.0 8.0 0.01 0.01 0.00 97 910.4
20260905204613 67 254 6.0 8.0 0.01 0.01 0.00 97 910.4
20260905204115 67 231 6.0 8.0 0.01 0.01 0.00 97 910.4
20260905204113 67 223 6.0 8.0 0.01 0.01 0.00 97 910.4
20260905203614 68 209 6.0 9.0 0.01 0.01 0.00 98 910.4
20260905203514 67 243 5.0 9.0 0.01 0.01 0.00 98 910.4
20260905203113 68 224 5.0 9.0 0.01 0.01 0.00 97 910.5
20260905202914 68 240 6.0 9.0 0.01 0.01 0.00 97 910.4
20260905202613 68 228 5.0 8.0 0.01 0.01 0.00 98 910.4
20260905202314 68 243 5.0 8.0 0.01 0.01 0.00 98 910.4
20260905202113 68 208 5.0 8.0 0.01 0.01 0.00 97 910.5
20260905201714 68 256 5.0 8.0 0.01 0.01 0.00 97 910.4
20260905201613 68 241 5.0 8.0 0.01 0.01 0.00 97 910.5
20260905201115 68 243 5.0 8.0 0.01 0.01 0.00 97 910.5
20260905201113 68 233 5.0 8.0 0.01 0.01 0.00 97 910.5
20260905200613 68 245 3.0 5.0 0.01 0.01 0.00 97 910.5
20260905200514 68 216 3.0 5.0 0.01 0.01 0.00 97 910.5
20260905200113 68 222 3.0 5.0 0.01 0.01 0.00 97 910.4
20260905195914 68 223 1.0 4.0 0.00 0.00 0.00 97 910.4
20260905195613 68 265 0.0 3.0 0.00 0.00 0.00 97 910.4
20260905195314 68 263 3.0 4.0 0.02 0.02 0.00 97 910.4
20260905195113 68 264 1.0 4.0 0.02 0.02 0.00 97 910.4
20260905194714 68 252 2.0 6.0 0.02 0.02 0.00 97 910.4
20260905194613 68 254 3.0 6.0 0.02 0.02 0.00 97 910.4
20260905194114 68 214 4.0 6.0 0.01 0.01 0.00 97 910.4
20260905193613 68 215 4.0 6.0 0.01 0.01 0.00 97 910.4
20260905193514 68 224 3.0 6.0 0.01 0.01 0.00 97 910.3
20260905193113 68 260 4.0 6.0 0.01 0.01 0.00 97 910.4
20260905192914 68 233 4.0 6.0 0.01 0.01 0.00 97 910.3
20260905192613 68 250 4.0 6.0 0.01 0.01 0.00 97 910.3
20260905192314 68 260 4.0 5.0 0.00 0.00 0.00 97 910.3
20260905192113 68 248 0.0 5.0 0.00 0.00 0.00 97 910.3
20260905191714 68 249 4.0 5.0 0.01 0.01 0.00 97 910.4
20260905191613 68 256 3.0 5.0 0.01 0.01 0.00 97 910.4
20260905191114 68 298 3.0 4.0 0.01 0.01 0.00 96 910.5
20260905191112 68 301 3.0 4.0 0.01 0.01 0.00 96 910.5
20260905190613 69 271 2.0 4.0 0.00 0.00 0.00 96 910.5
20260905190514 69 260 2.0 3.0 0.00 0.00 0.00 96 910.5
20260905190112 69 265 0.0 2.0 0.00 0.00 0.00 96 910.5
20260905185914 69 266 1.0 2.0 0.01 0.01 0.00 96 910.5
20260905185612 69 289 0.0 2.0 0.00 0.00 0.00 96 910.6
20260905185314 69 313 1.0 2.0 0.00 0.00 0.00 96 910.6
20260905185112 69 284 1.0 2.0 0.00 0.00 0.00 96 910.6
20260905184714 69 290 1.0 2.0 0.00 0.00 0.00 96 910.7
20260905184612 69 302 1.0 2.0 0.00 0.00 0.00 96 910.7
20260905184112 69 276 0.0 1.0 0.03 0.03 0.00 96 910.7
20260905183612 69 360 0.0 1.0 0.02 0.02 0.00 96 910.8
20260905183513 69 360 0.0 1.0 0.02 0.02 0.00 96 910.8
20260905183112 69 49 1.0 1.0 0.02 0.02 0.00 96 910.8
20260905182913 69 55 0.0 1.0 0.02 0.02 0.00 96 910.8
20260905182612 69 49 0.0 0.0 0.02 0.02 0.00 96 910.9
20260905182314 69 55 0.0 1.0 0.02 0.02 0.00 96 910.9
20260905182112 69 94 0.0 1.0 0.02 0.02 0.00 96 910.9
20260905181713 69 199 0.0 1.0 0.02 0.02 0.00 96 910.9
20260905181612 69 315 0.0 1.0 0.02 0.02 0.00 96 910.9
20260905181112 69 355 0.0 1.0 0.02 0.02 0.00 96 910.9
20260905180612 69 75 1.0 1.0 0.01 0.01 0.00 96 911.0
20260905180514 69 90 1.0 1.0 0.01 0.01 0.00 96 911.0
20260905180112 69 9 1.0 4.0 0.02 0.02 0.00 95 911.0
20260905175913 69 6 2.0 4.0 0.02 0.02 0.00 95 911.0
20260905175612 69 50 3.0 4.0 0.01 0.01 0.00 94 911.2
20260905175313 69 44 3.0 4.0 0.00 0.00 0.00 94 911.1
20260905175112 69 60 2.0 4.0 0.00 0.00 0.00 94 911.2
20260905174713 69 65 3.0 4.0 0.00 0.00 0.00 93 911.3
20260905174612 69 55 3.0 4.0 0.00 0.00 0.00 93 911.3
20260905174113 69 81 3.0 4.0 0.00 0.00 0.00 93 911.3
20260905173612 68 45 1.0 1.0 0.00 0.00 0.00 95 911.3
20260905173513 68 47 1.0 1.0 0.00 0.00 0.00 95 911.3
20260905173112 68 59 1.0 2.0 0.00 0.00 0.00 96 911.3
20260905172913 69 61 1.0 2.0 0.00 0.00 0.00 97 911.4
20260905172313 68 98 0.0 1.0 0.00 0.00 0.00 97 911.3
20260905172112 69 66 1.0 2.0 0.00 0.00 0.00 97 911.3
20260905171713 68 69 1.0 2.0 0.00 0.00 0.00 97 911.3
20260905171612 68 28 1.0 2.0 0.00 0.00 0.00 97 911.3
20260905171113 68 28 2.0 4.0 0.00 0.00 0.00 97 911.3
20260905170611 68 55 2.0 4.0 0.00 0.00 0.00 97 911.2
20260905170513 68 51 3.0 4.0 0.00 0.00 0.00 97 911.2
20260905170112 68 70 2.0 4.0 0.00 0.00 0.00 97 911.2
20260905165913 68 61 4.0 5.0 0.00 0.00 0.00 97 911.2
20260905165611 68 60 5.0 5.0 0.00 0.00 0.00 97 911.2
20260905165313 68 63 4.0 5.0 0.00 0.00 0.00 97 911.2
20260905165111 68 57 3.0 5.0 0.00 0.00 0.00 97 911.3
20260905164713 68 74 5.0 6.0 0.00 0.00 0.00 97 911.3
20260905164611 68 75 5.0 6.0 0.00 0.00 0.00 97 911.4
20260905164113 68 74 0.0 5.0 0.00 0.00 0.00 97 911.4
20260905164111 68 79 0.0 5.0 0.00 0.00 0.00 97 911.4
20260905163611 68 83 0.0 4.0 0.00 0.00 0.00 98 911.5
20260905163513 68 86 0.0 5.0 0.00 0.00 0.00 98 911.5
20260905163111 68 59 5.0 6.0 0.00 0.00 0.00 97 911.5
20260905162912 68 69 5.0 6.0 0.00 0.00 0.00 97 911.5
20260905162611 68 63 0.0 6.0 0.00 0.00 0.00 97 911.5
20260905162312 68 66 6.0 6.0 0.00 0.00 0.00 97 911.5
20260905162111 68 75 5.0 6.0 0.00 0.00 0.00 97 911.6
20260905161712 68 64 5.0 6.0 0.00 0.00 0.00 97 911.5
20260905161611 68 62 4.0 5.0 0.00 0.00 0.00 97 911.5
20260905161114 68 63 4.0 5.0 0.00 0.00 0.00 97 911.5
20260905161112 68 64 4.0 5.0 0.00 0.00 0.00 97 911.5
20260905160611 68 91 5.0 9.0 0.00 0.00 0.00 97 911.6
20260905160512 68 95 5.0 9.0 0.00 0.00 0.00 97 911.5
20260905160111 68 73 2.0 7.0 0.00 0.00 0.00 98 911.6
20260905155913 68 70 4.0 6.0 0.00 0.00 0.00 97 911.6
20260905155611 68 71 5.0 6.0 0.00 0.00 0.00 97 911.6
20260905155312 68 68 4.0 6.0 0.00 0.00 0.00 97 911.7
20260905155111 68 67 3.0 6.0 0.00 0.00 0.00 97 911.7
20260905154712 68 88 0.0 5.0 0.00 0.00 0.00 97 911.8
20260905154611 68 66 5.0 6.0 0.00 0.00 0.00 97 911.8
20260905154113 68 52 2.0 5.0 0.00 0.00 0.00 97 911.8
20260905154111 68 56 2.0 5.0 0.00 0.00 0.00 97 911.8
20260905153611 68 66 6.0 7.0 0.00 0.00 0.00 97 911.8
20260905153512 68 62 3.0 7.0 0.00 0.00 0.00 97 911.9
20260905153111 68 77 6.0 7.0 0.00 0.00 0.00 97 911.9
20260905152912 68 77 5.0 7.0 0.00 0.00 0.00 97 911.9
20260905152611 68 80 6.0 10.0 0.00 0.00 0.00 97 912.0
20260905152312 68 66 7.0 10.0 0.00 0.00 0.00 97 912.0
20260905152111 68 64 8.0 10.0 0.00 0.00 0.00 97 912.0
20260905151712 68 71 6.0 8.0 0.00 0.00 0.00 97 912.0
20260905151112 69 73 5.0 7.0 0.00 0.00 0.00 97 911.9
20260905150611 69 82 6.0 8.0 0.00 0.00 0.00 97 911.8
20260905150512 69 61 7.0 8.0 0.00 0.00 0.00 97 911.9
20260905145912 69 66 7.0 9.0 0.00 0.00 0.00 97 911.9
20260905145610 69 72 7.0 9.0 0.00 0.00 0.00 97 911.9
20260905145312 69 82 1.0 7.0 0.00 0.00 0.00 97 911.8
20260905145111 69 70 7.0 10.0 0.00 0.00 0.00 97 911.8
20260905144712 69 96 8.0 10.0 0.00 0.00 0.00 96 911.9
20260905144612 69 69 8.0 10.0 0.00 0.00 0.00 96 911.9
20260905144112 69 87 6.0 9.0 0.00 0.00 0.00 96 911.9
20260905144110 69 76 6.0 9.0 0.00 0.00 0.00 96 911.9
20260905143610 69 89 7.0 9.0 0.00 0.00 0.00 96 912.0
20260905143512 69 95 7.0 8.0 0.00 0.00 0.00 96 912.0
20260905143110 69 77 6.0 7.0 0.00 0.00 0.00 96 912.0
20260905142912 69 79 4.0 6.0 0.00 0.00 0.00 96 912.0
20260905142610 68 83 5.0 6.0 0.00 0.00 0.00 96 912.1
20260905142311 68 103 4.0 5.0 0.00 0.00 0.00 96 912.1
20260905142110 68 101 1.0 5.0 0.00 0.00 0.00 97 912.1
20260905141711 68 92 6.0 7.0 0.00 0.00 0.00 97 912.2
20260905141610 68 105 6.0 7.0 0.00 0.00 0.00 97 912.2
20260905141112 68 97 6.0 7.0 0.00 0.00 0.00 97 912.2
20260905141110 68 90 6.0 7.0 0.00 0.00 0.00 97 912.2
20260905140610 68 90 4.0 6.0 0.00 0.00 0.00 97 912.2
20260905140513 68 82 1.0 6.0 0.00 0.00 0.00 97 912.1
20260905140110 68 84 1.0 6.0 0.00 0.00 0.00 97 912.1
20260905135911 68 94 1.0 8.0 0.00 0.00 0.00 97 912.2
20260905135610 68 100 6.0 7.0 0.00 0.00 0.00 97 912.2
20260905135311 68 96 6.0 7.0 0.00 0.00 0.00 97 912.1
20260905135110 68 69 5.0 7.0 0.00 0.00 0.00 97 912.1
20260905134711 68 98 5.0 7.0 0.00 0.00 0.00 98 912.1
20260905134610 68 113 5.0 7.0 0.00 0.00 0.00 98 912.1
20260905134112 68 80 5.0 7.0 0.00 0.00 0.00 97 912.0
20260905134110 68 85 5.0 7.0 0.00 0.00 0.00 97 912.0
20260905133610 68 99 5.0 7.0 0.00 0.00 0.00 98 912.1
20260905133511 68 103 4.0 7.0 0.00 0.00 0.00 97 912.0
20260905133110 69 115 6.0 8.0 0.00 0.00 0.00 98 912.0
20260905132911 69 99 5.0 8.0 0.00 0.00 0.00 98 912.0
20260905132610 69 91 6.0 8.0 0.00 0.00 0.00 98 912.0
20260905132311 69 90 7.0 9.0 0.00 0.00 0.00 98 912.0
20260905131711 69 90 7.0 9.0 0.00 0.00 0.00 98 911.9
20260905131610 69 103 6.0 9.0 0.00 0.00 0.00 98 911.8
20260905131111 69 108 6.0 8.0 0.00 0.00 0.00 98 911.9
20260905130610 69 94 5.0 7.0 0.00 0.00 0.00 98 911.8
20260905130511 69 103 5.0 6.0 0.00 0.00 0.00 98 911.8
20260905125610 69 89 3.0 5.0 0.00 0.00 0.00 98 911.7
20260905125311 69 78 4.0 5.0 0.00 0.00 0.00 97 911.7
20260905125110 69 87 3.0 5.0 0.00 0.00 0.00 98 911.7
20260905124711 69 89 3.0 5.0 0.00 0.00 0.00 98 911.6
20260905124609 69 89 1.0 5.0 0.00 0.00 0.00 98 911.7
20260905124109 69 114 1.0 5.0 0.00 0.00 0.00 98 911.6
20260905123610 69 88 0.0 4.0 0.00 0.00 0.00 98 911.5
20260905123511 69 102 4.0 6.0 0.00 0.00 0.00 98 911.5
20260905123109 69 118 2.0 6.0 0.00 0.00 0.00 98 911.5
20260905122911 69 131 0.0 6.0 0.00 0.00 0.00 98 911.5
20260905122609 69 86 5.0 7.0 0.00 0.00 0.00 98 911.5
20260905122311 69 102 1.0 6.0 0.00 0.00 0.00 98 911.4
20260905121711 69 83 1.0 5.0 0.00 0.00 0.00 98 911.3
20260905121609 69 119 4.0 8.0 0.00 0.00 0.00 98 911.3
20260905121111 69 129 5.0 6.0 0.00 0.00 0.00 98 911.3
20260905121109 69 127 5.0 6.0 0.00 0.00 0.00 98 911.3
20260905120609 69 120 4.0 6.0 0.00 0.00 0.00 98 911.3
20260905120511 69 122 2.0 6.0 0.00 0.00 0.00 98 911.3
20260905120109 69 129 4.0 6.0 0.00 0.00 0.00 98 911.2
20260905115910 70 128 5.0 7.0 0.00 0.00 0.00 98 911.1
20260905115609 70 147 5.0 7.0 0.00 0.00 0.00 98 911.1
20260905115310 70 127 5.0 7.0 0.00 0.00 0.00 98 911.1
20260905115109 70 83 4.0 7.0 0.00 0.00 0.00 98 911.0
20260905114711 70 129 4.0 5.0 0.00 0.00 0.00 98 911.0
20260905114610 69 92 3.0 5.0 0.00 0.00 0.00 98 911.0
20260905114111 70 100 5.0 8.0 0.00 0.00 0.00 97 910.9
20260905114109 70 101 5.0 8.0 0.00 0.00 0.00 97 910.9
20260905113609 70 106 5.0 8.0 0.00 0.00 0.00 98 910.9
20260905113510 70 88 5.0 8.0 0.00 0.00 0.00 97 910.9
20260905113109 70 116 6.0 8.0 0.00 0.00 0.00 97 910.8
20260905112910 70 97 6.0 8.0 0.00 0.00 0.00 97 910.8
20260905112609 70 99 7.0 8.0 0.00 0.00 0.00 97 910.8
20260905112310 70 94 6.0 8.0 0.00 0.00 0.00 97 910.7
20260905112109 70 120 6.0 8.0 0.00 0.00 0.00 97 910.8
20260905111710 70 98 4.0 8.0 0.00 0.00 0.00 97 910.7
20260905111609 69 135 5.0 8.0 0.00 0.00 0.00 97 910.7
20260905111110 69 112 5.0 7.0 0.00 0.00 0.00 97 910.6
20260905110609 69 100 4.0 6.0 0.00 0.00 0.00 97 910.6
20260905110510 69 99 5.0 6.0 0.00 0.00 0.00 97 910.6
20260905110109 69 121 3.0 5.0 0.00 0.00 0.00 97 910.5
20260905105910 69 155 4.0 7.0 0.00 0.00 0.00 97 910.5
20260905105609 70 111 4.0 7.0 0.00 0.00 0.00 97 910.5
20260905105310 70 161 3.0 7.0 0.00 0.00 0.00 97 910.5
20260905105109 70 117 4.0 7.0 0.00 0.00 0.00 97 910.4
20260905104710 70 90 2.0 5.0 0.00 0.00 0.00 97 910.4
20260905104608 69 94 1.0 4.0 0.00 0.00 0.00 97 910.5
20260905104110 69 81 1.0 5.0 0.00 0.00 0.00 97 910.4
20260905104108 69 80 1.0 5.0 0.00 0.00 0.00 97 910.3
20260905103608 70 101 5.0 7.0 0.00 0.00 0.00 97 910.2
20260905103510 70 111 5.0 7.0 0.00 0.00 0.00 97 910.2
20260905103109 70 98 4.0 8.0 0.00 0.00 0.00 97 910.2
20260905102910 70 103 5.0 7.0 0.00 0.00 0.00 96 910.1
20260905102608 70 101 2.0 4.0 0.00 0.00 0.00 96 910.2
20260905102310 70 103 0.0 4.0 0.00 0.00 0.00 96 910.2
20260905102109 70 82 2.0 6.0 0.00 0.00 0.00 96 910.1
20260905101710 70 80 4.0 6.0 0.00 0.00 0.00 96 910.1
20260905101608 70 72 4.0 6.0 0.00 0.00 0.00 96 910.1
20260905101110 70 105 1.0 5.0 0.00 0.00 0.00 96 910.1
20260905101108 70 103 1.0 5.0 0.00 0.00 0.00 96 910.0
20260905100608 70 110 4.0 8.0 0.00 0.00 0.00 95 910.0
20260905100108 71 84 3.0 5.0 0.00 0.00 0.00 95 910.1
20260905095909 71 103 2.0 4.0 0.00 0.00 0.00 95 910.1
20260905095608 71 100 2.0 3.0 0.00 0.00 0.00 94 910.1
20260905095309 72 75 2.0 3.0 0.00 0.00 0.00 94 910.0
20260905095108 72 110 1.0 3.0 0.00 0.00 0.00 95 910.0
20260905094608 71 157 1.0 3.0 0.00 0.00 0.00 94 910.0
20260905094110 71 75 2.0 3.0 0.00 0.00 0.00 93 909.9
20260905094108 71 73 2.0 3.0 0.00 0.00 0.00 93 910.0
20260905093608 71 72 2.0 3.0 0.00 0.00 0.00 93 909.9
20260905093509 71 92 0.0 3.0 0.00 0.00 0.00 93 909.9
20260905093108 71 68 3.0 4.0 0.00 0.00 0.00 93 909.9
20260905092909 71 75 2.0 4.0 0.00 0.00 0.00 93 909.8
20260905092608 71 50 1.0 3.0 0.00 0.00 0.00 93 909.8
20260905092309 72 50 1.0 2.0 0.00 0.00 0.00 93 909.8
20260905092109 71 41 0.0 0.0 0.00 0.00 0.00 93 909.8
20260905091709 71 71 0.0 3.0 0.00 0.00 0.00 93 909.8
20260905091608 72 63 0.0 4.0 0.00 0.00 0.00 93 909.8
20260905091110 72 45 3.0 4.0 0.00 0.00 0.00 92 909.7
20260905091108 72 53 3.0 4.0 0.00 0.00 0.00 92 909.7
20260905090608 73 49 1.0 4.0 0.00 0.00 0.00 92 909.6
20260905090509 73 43 1.0 4.0 0.00 0.00 0.00 92 909.7
20260905090108 73 51 1.0 2.0 0.00 0.00 0.00 91 909.6
20260905085909 73 264 0.0 1.0 0.00 0.00 0.00 92 909.7
20260905085608 73 121 0.0 2.0 0.00 0.00 0.00 93 909.6
20260905085309 72 116 0.0 3.0 0.00 0.00 0.00 92 909.6
20260905085108 73 83 2.0 5.0 0.00 0.00 0.00 92 909.6
20260905084709 73 126 2.0 4.0 0.00 0.00 0.00 92 909.6
20260905084607 73 121 2.0 4.0 0.00 0.00 0.00 91 909.7
20260905084109 73 142 2.0 3.0 0.00 0.00 0.00 92 909.7
20260905083607 73 165 3.0 6.0 0.00 0.00 0.00 92 909.7
20260905083509 73 233 3.0 6.0 0.00 0.00 0.00 92 909.7
20260905083107 73 94 3.0 6.0 0.00 0.00 0.00 91 909.7
20260905082909 74 169 4.0 6.0 0.00 0.00 0.00 91 909.7
20260905082608 74 166 1.0 4.0 0.00 0.00 0.00 91 909.6
20260905082309 75 201 2.0 4.0 0.00 0.00 0.00 91 909.5
20260905082107 74 206 3.0 6.0 0.00 0.00 0.00 91 909.6
20260905081709 75 204 4.0 6.0 0.00 0.00 0.00 90 909.5
20260905081607 75 183 3.0 6.0 0.00 0.00 0.00 91 909.5
20260905081109 74 218 3.0 5.0 0.00 0.00 0.00 91 909.5
20260905081107 74 216 3.0 5.0 0.00 0.00 0.00 91 909.6
20260905080607 74 217 3.0 5.0 0.00 0.00 0.00 90 909.5
20260905080508 75 198 3.0 5.0 0.00 0.00 0.00 91 909.5
20260905080107 74 141 1.0 4.0 0.00 0.00 0.00 91 909.5
20260905075607 74 228 2.0 8.0 0.00 0.00 0.00 92 909.6
20260905075308 74 200 4.0 9.0 0.00 0.00 0.00 92 909.6
20260905075107 74 139 4.0 9.0 0.00 0.00 0.00 91 909.6
20260905074708 73 225 2.0 9.0 0.00 0.00 0.00 92 909.6
20260905074607 73 173 4.0 9.0 0.00 0.00 0.00 92 909.7
20260905074109 73 227 3.0 5.0 0.00 0.00 0.00 94 909.7
20260905074107 73 216 3.0 5.0 0.00 0.00 0.00 94 909.7
20260905073607 73 200 4.0 7.0 0.00 0.00 0.00 93 909.8
20260905073508 73 198 5.0 7.0 0.00 0.00 0.00 94 909.8
20260905073107 73 219 6.0 10.0 0.00 0.00 0.00 93 909.8
20260905072908 73 112 6.0 10.0 0.00 0.00 0.00 93 909.8
20260905072607 74 207 4.0 7.0 0.00 0.00 0.00 92 909.8
20260905072308 74 177 4.0 10.0 0.00 0.00 0.00 92 909.8
20260905072108 74 142 4.0 10.0 0.00 0.00 0.00 93 909.8
20260905071708 73 199 5.0 10.0 0.00 0.00 0.00 93 909.8
20260905071607 73 210 6.0 10.0 0.00 0.00 0.00 93 909.7
20260905071108 74 187 5.0 10.0 0.00 0.00 0.00 91 909.7
20260905070607 75 145 5.0 8.0 0.00 0.00 0.00 91 909.8
20260905070508 74 134 3.0 8.0 0.00 0.00 0.00 93 909.8
20260905070107 72 149 2.0 4.0 0.00 0.00 0.00 94 909.8
20260905065908 72 176 1.0 4.0 0.00 0.00 0.00 95 909.9
20260905065607 72 223 6.0 8.0 0.00 0.00 0.00 95 910.0
20260905065308 72 189 5.0 7.0 0.00 0.00 0.00 94 910.0
20260905065107 72 204 4.0 6.0 0.00 0.00 0.00 94 909.9
20260905064708 72 174 5.0 8.0 0.00 0.00 0.00 95 910.0
20260905064607 72 192 4.0 8.0 0.00 0.00 0.00 95 910.0
20260905064108 72 189 3.0 8.0 0.00 0.00 0.00 94 910.0
20260905063607 72 208 5.0 10.0 0.00 0.00 0.00 95 910.0
20260905063508 72 191 4.0 10.0 0.00 0.00 0.00 95 910.0
20260905063107 72 210 6.0 10.0 0.00 0.00 0.00 95 910.1
20260905062908 72 191 6.0 10.0 0.00 0.00 0.00 95 910.1
20260905062606 72 243 4.0 8.0 0.00 0.00 0.00 94 910.0
20260905062309 72 214 3.0 8.0 0.00 0.00 0.00 95 910.1
20260905062106 72 157 5.0 7.0 0.00 0.00 0.00 94 910.1
20260905061708 72 206 2.0 4.0 0.00 0.00 0.00 95 910.1
20260905061607 72 201 1.0 4.0 0.00 0.00 0.00 95 910.1
20260905055908 73 197 1.0 4.0 0.00 0.00 0.00 93 910.1
20260905055308 72 130 1.0 5.0 0.00 0.00 0.00 94 910.2
20260905054708 72 181 2.0 7.0 0.00 0.00 0.00 95 910.2
20260905054108 71 203 2.0 5.0 0.00 0.00 0.00 95 910.2
20260905053606 72 225 1.0 5.0 0.00 0.00 0.00 95 910.2
20260905053507 72 242 5.0 9.0 0.00 0.00 0.00 95 910.2
20260905053106 72 164 4.0 7.0 0.00 0.00 0.00 94 910.2
20260905052907 72 201 5.0 7.0 0.00 0.00 0.00 94 910.3
20260905052308 73 193 0.0 5.0 0.00 0.00 0.00 93 910.4
20260905052106 73 176 1.0 8.0 0.00 0.00 0.00 93 910.3
20260905051710 74 130 1.0 4.0 0.00 0.00 0.00 93 910.4
20260905051107 73 223 3.0 6.0 0.00 0.00 0.00 93 910.5
20260905050607 73 188 4.0 6.0 0.00 0.00 0.00 94 910.5
20260905050507 73 132 4.0 6.0 0.00 0.00 0.00 94 910.5
20260905050106 72 160 3.0 6.0 0.00 0.00 0.00 94 910.6
20260905045907 72 203 4.0 6.0 0.00 0.00 0.00 94 910.6
20260905045606 72 178 0.0 3.0 0.00 0.00 0.00 94 910.7
20260905045307 72 79 1.0 6.0 0.00 0.00 0.00 95 910.8
20260905045106 72 119 2.0 6.0 0.00 0.00 0.00 95 910.8
20260905044707 72 189 3.0 6.0 0.00 0.00 0.00 95 910.8
20260905044606 72 184 2.0 6.0 0.00 0.00 0.00 95 910.8
20260905044107 72 187 1.0 8.0 0.00 0.00 0.00 95 910.8
20260905043606 71 92 4.0 8.0 0.00 0.00 0.00 95 910.9
20260905043507 71 99 5.0 8.0 0.00 0.00 0.00 95 910.9
20260905043106 71 98 3.0 7.0 0.00 0.00 0.00 95 910.9
20260905042907 71 83 4.0 7.0 0.00 0.00 0.00 94 910.9
20260905042605 72 125 5.0 7.0 0.00 0.00 0.00 94 911.0
20260905042106 72 140 4.0 8.0 0.00 0.00 0.00 94 911.0
20260905041707 72 125 3.0 8.0 0.00 0.00 0.00 94 911.0
20260905041605 72 130 4.0 8.0 0.00 0.00 0.00 94 911.0
20260905041107 73 107 0.0 7.0 0.00 0.00 0.00 93 910.9
20260905041105 73 110 0.0 7.0 0.00 0.00 0.00 93 911.0
20260905040605 73 137 1.0 3.0 0.00 0.00 0.00 94 911.0
20260905040507 73 154 1.0 3.0 0.00 0.00 0.00 95 911.0
20260905040105 72 116 1.0 2.0 0.00 0.00 0.00 95 911.1
20260905035907 72 203 2.0 4.0 0.00 0.00 0.00 95 911.1
20260905035605 72 164 1.0 3.0 0.00 0.00 0.00 96 911.0
20260905032306 73 172 4.0 10.0 0.00 0.00 0.00 93 911.2
20260905032105 73 210 6.0 10.0 0.00 0.00 0.00 92 911.2
20260905031706 74 126 3.0 5.0 0.00 0.00 0.00 90 911.2
20260905031605 74 142 4.0 5.0 0.00 0.00 0.00 90 911.2
20260905031107 73 132 0.0 3.0 0.00 0.00 0.00 92 911.2
20260905031105 73 142 0.0 3.0 0.00 0.00 0.00 92 911.3
20260905030506 73 115 0.0 0.0 0.00 0.00 0.00 91 911.4
20260905030105 74 123 2.0 8.0 0.00 0.00 0.00 91 911.3
20260905025906 74 214 2.0 8.0 0.00 0.00 0.00 91 911.2
20260905025606 74 105 5.0 8.0 0.00 0.00 0.00 90 911.2
20260905025306 74 138 3.0 6.0 0.00 0.00 0.00 90 911.3
20260905025105 74 197 3.0 7.0 0.00 0.00 0.00 91 911.3
20260905024706 73 117 1.0 7.0 0.00 0.00 0.00 91 911.3
20260905024605 73 129 4.0 8.0 0.00 0.00 0.00 90 911.2
20260905024106 73 125 3.0 8.0 0.00 0.00 0.00 91 911.3
20260905023605 74 128 3.0 7.0 0.00 0.00 0.00 92 911.2
20260905023506 73 159 2.0 8.0 0.00 0.00 0.00 92 911.2
20260905023105 73 160 4.0 8.0 0.00 0.00 0.00 92 911.3
20260905022906 73 121 4.0 8.0 0.00 0.00 0.00 91 911.2
20260905022605 74 84 5.0 8.0 0.00 0.00 0.00 91 911.2
20260905022105 74 93 1.0 8.0 0.00 0.00 0.00 89 911.1
20260905021706 75 134 2.0 7.0 0.00 0.00 0.00 90 911.2
20260905021605 75 152 2.0 7.0 0.00 0.00 0.00 90 911.2
20260905021106 73 154 3.0 6.0 0.00 0.00 0.00 91 911.1